Mumbai, India

4:26 AM IST on September 21, 2017 (GMT +0530)
Chhatrapati Shivaji International

Weather History for VABB - December, 2013

Change the Weather History Date:

Monday, December 16, 2013

  Actual Average Record
Temperature  
Mean Temperature 75 °F -  
Max Temperature 90 °F 86 °F 95 °F (1996)
Min Temperature 60 °F 67 °F 60 °F (2013)
Cooling Degree Days 10    
Growing Degree Days 25 (Base 50)    
Moisture  
Dew Point 55 °F    
Average Humidity 45    
Maximum Humidity 79    
Minimum Humidity 17    
Precipitation  
Precipitation 0.00 in - - ()
Sea Level Pressure  
Sea Level Pressure 29.92 in    
Wind  
Wind Speed 3 mph ()    
Max Wind Speed 10 mph    
Max Gust Speed -    
Visibility 1.5 miles    
Events      
Averages and records for this station are not official NWS values.
T = Trace of Precipitation, MM = Missing Value Source: Averaged Metar Reports

Daily Weather History Graph

Daily Weather History Graph

Search for Another Location

Airport or City:

Trip Planner

Search our weather history database for the weather conditions in past years. The results will help you decide how hot, cold, wet, or windy it might be!

Date:

Astronomy

Dec. 16, 2013 Rise Set
Actual Time 7:04 AM IST 6:03 PM IST
Civil Twilight 6:40 AM IST 6:27 PM IST
Nautical Twilight 6:13 AM IST 6:55 PM IST
Astronomical Twilight 5:46 AM IST 7:22 PM IST
Moon 5:25 PM IST (12/16) 5:57 AM IST (12/16)
Length of Visible Light 11h 46m
Length of Day
10h 59m
Waxing Gibbous, 99% of the Moon is Illuminated
Dec 16
Waxing Gibbous
Dec 17
Full
Dec 25
Last Quarter
Jan 1
New
Jan 8
First Quarter

Hourly Weather History & Observations

Time (IST) Temp. Heat Index Dew Point Humidity Pressure Visibility Wind Dir Wind Speed Gust Speed Precip Events Conditions
12:10 AM 75.2 °F - 53.6 °F 47% 29.92 in 1.5 mi SE 3.5 mph - N/A   Smoke
12:40 AM 75.2 °F - 55.4 °F 50% 29.89 in 1.3 mi Calm Calm - N/A   Smoke
1:10 AM 73.4 °F - 57.2 °F 57% 29.89 in 1.0 mi NE 3.5 mph - N/A   Smoke
1:40 AM 73.4 °F - 57.2 °F 57% 29.89 in 1.2 mi Calm Calm - N/A   Smoke
2:10 AM 71.6 °F - 55.4 °F 57% 29.89 in 1.3 mi Calm Calm - N/A   Smoke
2:30 AM 65 °F - 59 °F 74% 29.89 in 1 mi Calm Calm - -   Haze
2:40 AM 73.4 °F - 55.4 °F 53% 29.89 in 1.3 mi SSW 3.5 mph - N/A   Smoke
3:10 AM 71.6 °F - 57.2 °F 60% 29.89 in 1.6 mi Calm Calm - N/A   Smoke
3:40 AM 71.6 °F - 57.2 °F 60% 29.89 in 1.4 mi Calm Calm - N/A   Haze
4:10 AM 69.8 °F - 57.2 °F 64% 29.89 in 1.6 mi Calm Calm - N/A   Haze
4:40 AM 69.8 °F - 57.2 °F 64% 29.89 in 1.6 mi Calm Calm - N/A   Haze
5:10 AM 71.6 °F - 53.6 °F 53% 29.89 in 1.6 mi ENE 4.6 mph - N/A   Haze
5:30 AM 62 °F - 57 °F 79% 29.90 in 1 mi Calm Calm - -   Haze
5:40 AM 69.8 °F - 53.6 °F 56% 29.89 in 1.7 mi Calm Calm - N/A   Haze
6:40 AM 71.6 °F - 50.0 °F 46% 29.92 in 1.7 mi Calm Calm - N/A   Haze
7:10 AM 71.6 °F - 50.0 °F 46% 29.92 in 1.6 mi Calm Calm - N/A   Haze
7:40 AM 71.6 °F - 50.0 °F 46% 29.95 in 1.3 mi SSE 4.6 mph - N/A   Haze
8:10 AM 73.4 °F - 50.0 °F 44% 29.95 in 1.3 mi SE 3.5 mph - N/A   Smoke
8:30 AM 71 °F - 51 °F 37% 29.97 in 1 mi Calm Calm - -   Smoke
9:10 AM 78.8 °F - 50.0 °F 36% 30.01 in 1.4 mi NE 4.6 mph - N/A   Smoke
9:40 AM 80.6 °F - 51.8 °F 37% 30.01 in 1.4 mi NNE 6.9 mph - N/A   Smoke
10:10 AM 82.4 °F - 50.0 °F 32% 30.01 in 1.6 mi NNE 5.8 mph - N/A   Smoke
10:40 AM 84.2 °F - 50.0 °F 30% 30.01 in 1.6 mi NE 4.6 mph - N/A   Smoke
11:10 AM 86.0 °F - 50.0 °F 29% 29.98 in 1.6 mi NNE 6.9 mph - N/A   Smoke
11:30 AM 87 °F - 49 °F 17% 29.98 in 1 mi Calm Calm - -   Smoke
11:40 AM 86.0 °F - 50.0 °F 29% 29.98 in 1.7 mi North 5.8 mph - N/A   Smoke
12:10 PM 87.8 °F - 48.2 °F 25% 29.95 in 1.7 mi ENE 4.6 mph - N/A   Smoke
12:40 PM 86.0 °F 86.1 °F 60.8 °F 43% 29.95 in 1.7 mi West 6.9 mph - N/A   Smoke
1:10 PM 86.0 °F 84.5 °F 55.4 °F 35% 29.92 in 1.7 mi WSW 6.9 mph - N/A   Smoke
1:40 PM 87.8 °F 86.5 °F 57.2 °F 35% 29.92 in 1.7 mi West 6.9 mph - N/A   Smoke
2:10 PM 87.8 °F 86.5 °F 57.2 °F 35% 29.89 in 1.6 mi West 8.1 mph - N/A   Smoke
2:30 PM 89 °F - 55 °F 22% 29.87 in 1 mi NW 3.5 mph - -   Smoke
2:40 PM 87.8 °F 86.1 °F 55.4 °F 33% 29.89 in 1.7 mi West 10.4 mph - N/A   Smoke
3:10 PM 86.0 °F 84.5 °F 55.4 °F 35% 29.86 in 1.6 mi West 9.2 mph - N/A   Smoke
3:40 PM 87.8 °F 86.5 °F 57.2 °F 35% 29.86 in 1.6 mi WNW 9.2 mph - N/A   Smoke
4:10 PM 87.8 °F - 51.8 °F 29% 29.86 in 1.7 mi WNW 10.4 mph - N/A   Smoke
4:40 PM 86.0 °F - 51.8 °F 31% 29.86 in 1.7 mi WNW 9.2 mph - N/A   Smoke
5:10 PM 86.0 °F 84.2 °F 53.6 °F 33% 29.89 in 1.7 mi NW 6.9 mph - N/A   Smoke
5:30 PM 83 °F - 58 °F 32% 29.88 in 1 mi NW 6.9 mph - -   Smoke
6:10 PM 82.4 °F 82.5 °F 59.0 °F 45% 29.89 in 1.9 mi NNW 4.6 mph - N/A   Smoke
6:40 PM 82.4 °F 82.5 °F 59.0 °F 45% 29.89 in 2.5 mi NW 5.8 mph - N/A   Smoke
7:10 PM 80.6 °F 81.8 °F 62.6 °F 54% 29.92 in 2.2 mi ENE 3.5 mph - N/A   Smoke
7:40 PM 80.6 °F 81.5 °F 60.8 °F 51% 29.92 in 2.2 mi South 4.6 mph - N/A   Smoke
8:10 PM 78.8 °F - 62.6 °F 57% 29.92 in - NNW 6.9 mph - N/A   Smoke
8:30 PM 78 °F - 63 °F 51% 29.92 in 1 mi NW 6.9 mph - -   Smoke
8:40 PM 78.8 °F - 60.8 °F 54% 29.92 in 2.2 mi North 4.6 mph - N/A   Smoke
9:40 PM 78.8 °F - 55.4 °F 44% 29.95 in 1.9 mi NE 4.6 mph - N/A   Smoke
10:10 PM 78.8 °F - 51.8 °F 39% 29.95 in 1.6 mi SSW 3.5 mph - N/A   Smoke
10:40 PM 77.0 °F - 53.6 °F 44% 29.95 in 1.6 mi East 5.8 mph - N/A   Smoke
11:10 PM 75.2 °F - 55.4 °F 50% 29.92 in 1.6 mi East 3.5 mph - N/A   Smoke
11:30 PM 68 °F - 59 °F 64% 29.93 in 1 mi Calm Calm - -   Smoke
11:40 PM 75.2 °F - 55.4 °F 50% 29.92 in 1.1 mi Calm Calm - N/A   Smoke